Location: Lalanga
(4.5882°N, 32.9072°E)
Time: 06:16:47
(UTC+00:00)

CZ-4 R/B - Pass Details

Date: 24 January 2020
Orbit: 534 x 597 km, 97.7° (Epoch: 17 February)

Event Time Altitude Azimuth Distance (km) Brightness Sun altitude
Rises 17:13:46 0° 193° (SSW) 2,704 5.3 -18.8°
Reaches altitude 10° 17:16:15 10° 209° (SSW) 1,820 4.6 -19.4°
Maximum altitude 17:19:16 21° 259° (W) 1,258 4.0 -20.1°
Drops below altitude 10° 17:22:21 10° 310° (NW) 1,844 4.4 -20.8°
Sets 17:24:53 0° 326° (NW) 2,750 5.1 -21.4°
